Showing default

PUNCH-WFI02, 63181

Orbit data source: Space-Track

PUNCH-WFI02, 63181 is an American payload satellite in SSO that was launched on Wed, 12 Mar 2025 UTC via an FALCON 9 launch vehicle from the Air Force Western Test Range (AFWTR). Payload-class satellites include a variety of spacecraft equipped with specific instruments for various scientific and technological missions. These include communications satellites like Starlink; space stations such as the ISS; scientific satellites like the Hubble; Earth observation satellites from companies like Planet Labs, Umbra, and HawkEye 360; GPS; miniature CubeSats for education and research; and military/defense satellites.

Loading next visibility...
Identifier
63181, 2025-047D
Orbit
SSO
Country
Flag of USUS
Related business
Manufacturer
SWRI
Mission
Operational Civil Astronomy
Bus & Motor
PUNCH, Unknown motor
Mass
64 kg wet, 64 kg dry
Launch date (UTC)
2025-03-12 (6 months ago)
Launch vehicle
FALCON 9
Launch site
Air Force Western Test Range (AFWTR)
Object type
Payload
Rocket body
Debris
Shape & HBR
Box + 1 Pan, 0.5 m
Radar Cross Section
0.625 m², Medium (>0.1 m² and < 1m²)

Expand to show TLE details & history
Last TLE update: 7 hours ago

TLE from 7 hours ago
0 PUNCH-WFI02
1 63181U 25047D   25261.24908587  .00000605  00000-0  10005-3 0  9996
2 63181  97.9558  86.4089 0009063 343.2777  16.8131 14.73786664 27999
Epoch: 2025-09-18T05:58Z
TLE epoch observation values (Epoch: 2025-09-18T05:58:41.019Z)
Latitude
-0.00003°
Longitude
-0.6754°
Altitude
645.92 km
Speed
7.538 km/s
True Right ascension
05h 45m 38s
True Declination
0° 00' 00"
Sunlit
Object was in daylight at epoch
Visualization orbit readout
Latitude
Unknown
Longitude
Unknown
Altitude
Unknown
Speed
Unknown
Apparent Right ascension
Unknown
Apparent Declination
Unknown
Sunlit
N/A
Visualization observer readout
Local Sidereal Time
05:39:55
Azimuth
Unknown
Elevation
Unknown
Doppler factor
Unknown
Orbital elements
Apogee altitude
652.423 km
Perigee altitude
639.691 km
Semi-major axis
7,024.194 km
Eccentricity
0.00091
Inclination
97.9558°
RAAN
86.4089°
Arg. of periapsis
343.2777°
True anomaly
16.84317°
Mean anomaly
16.8131°
Eccentric anomaly
16.82813°
Mean motion
3.68679 °/min
Orbital period
97.65 mins
BSTAR
0.00010005
Loading maneuver chart data...
Computing Atmospheric mass density...
Loading historical data...
Loading historical data...
Loading historical data...
Loading historical data...
Loading historical data...
Loading historical data...
Loading historical data...
Other satellites on launch #47 in the year 2025 (2025-03-12 UTC)

Documentation

Showing up to 5 results
|